Fremont, MI

9:54 PM EDT on April 26, 2017 (GMT -0400)
Fremont

Weather History for KFFX - January, 2013

Change the Weather History Date:

Thursday, January 10, 2013

  Actual Average (KMKG) Record (KMKG)
Temperature  
Mean Temperature 34 °F -  
Max Temperature 43 °F 28 °F 58 °F (1975)
Min Temperature 24 °F 17 °F -4 °F (1982)
Degree Days  
Heating Degree Days 32    
Moisture  
Dew Point 26 °F    
Average Humidity 75    
Maximum Humidity 99    
Minimum Humidity 44    
Precipitation  
Precipitation 0.00 in - - ()
Sea Level Pressure  
Sea Level Pressure 30.36 in    
Wind  
Wind Speed 5 mph (East)    
Max Wind Speed 15 mph    
Max Gust Speed 25 mph    
Visibility 10 miles    
Events Rain    
Averages and records for this station are not official NWS values.
T = Trace of Precipitation, MM = Missing Value Source: NWS Daily Summary

Daily Weather History Graph

Daily Weather History Graph

Search for Another Location

Airport or City:

Trip Planner

Search our weather history database for the weather conditions in past years. The results will help you decide how hot, cold, wet, or windy it might be!

Date:

Astronomy

Jan. 10, 2013 Rise Set
Actual Time 8:15 AM EST 5:27 PM EST
Civil Twilight 7:43 AM EST 5:59 PM EST
Nautical Twilight 7:08 AM EST 6:35 PM EST
Astronomical Twilight 6:33 AM EST 7:10 PM EST
Moon 6:54 AM EST (1/10) 4:35 PM EST (1/10)
Length of Visible Light 10h 16m
Length of Day
9h 12m
Waning Crescent, 2% of the Moon is Illuminated
Jan 10
Waning Crescent
Jan 11
New
Jan 18
First Quarter
Jan 26
Full
Feb 3
Last Quarter

Hourly Weather History & Observations

Time (EST) Temp. Windchill Dew Point Humidity Pressure Visibility Wind Dir Wind Speed Gust Speed Precip Events Conditions
12:15 AM 28.6 °F 24.8 °F 24.8 °F 86% 30.38 in 10.0 mi NW 3.5 mph - N/A   Clear
12:35 AM 29.1 °F - 25.0 °F 85% 30.40 in 10.0 mi Calm Calm - N/A   Clear
12:55 AM 30.2 °F - 25.3 °F 82% 30.40 in 10.0 mi Calm Calm - N/A   Clear
1:15 AM 28.2 °F - 23.5 °F 83% 30.41 in 10.0 mi Calm Calm - N/A   Clear
1:35 AM 26.8 °F - 23.9 °F 89% 30.44 in 10.0 mi Calm Calm - N/A   Clear
1:55 AM 25.7 °F 20.1 °F 24.3 °F 94% 30.46 in 10.0 mi South 4.6 mph - N/A   Clear
2:15 AM 26.2 °F 22.1 °F 23.5 °F 90% 30.48 in 10.0 mi SSE 3.5 mph - N/A   Clear
2:35 AM 29.1 °F 25.4 °F 25.2 °F 85% 30.49 in 10.0 mi South 3.5 mph - N/A   Clear
2:54 AM 28.4 °F 24.6 °F 24.3 °F 84% 30.50 in 10.0 mi South 3.5 mph - N/A   Clear
3:15 AM 28.6 °F 24.8 °F 25.5 °F 88% 30.49 in 10.0 mi SSE 3.5 mph - N/A   Clear
3:35 AM 28.4 °F - 24.4 °F 85% 30.49 in 10.0 mi Calm Calm - N/A   Clear
3:55 AM 27.5 °F - 25.2 °F 91% 30.49 in 10.0 mi Calm Calm - N/A   Clear
4:15 AM 27.9 °F - 25.2 °F 90% 30.49 in 10.0 mi Calm Calm - N/A   Clear
4:34 AM 26.2 °F - 25.0 °F 95% 30.49 in 10.0 mi Calm Calm - N/A   Clear
4:55 AM 27.0 °F - 25.7 °F 95% 30.49 in 10.0 mi Calm Calm - N/A   Clear
5:15 AM 25.7 °F 20.1 °F 25.3 °F 99% 30.49 in 10.0 mi NE 4.6 mph - N/A   Clear
5:35 AM 26.4 °F - 25.7 °F 97% 30.49 in 10.0 mi Calm Calm - N/A   Clear
5:55 AM 26.6 °F - 26.1 °F 98% 30.50 in 10.0 mi Calm Calm - N/A   Clear
6:15 AM 25.0 °F - 24.1 °F 96% 30.50 in 10.0 mi Calm Calm - N/A   Clear
6:35 AM 25.7 °F - 25.5 °F 99% 30.50 in 10.0 mi Calm Calm - N/A   Clear
7:15 AM 25.3 °F 19.7 °F 25.0 °F 99% 30.50 in 10.0 mi NE 4.6 mph - N/A   Clear
7:35 AM 25.3 °F 21.1 °F 25.0 °F 99% 30.50 in 10.0 mi ENE 3.5 mph - N/A   Clear
7:55 AM 24.8 °F 19.1 °F 24.4 °F 99% 30.49 in 10.0 mi ENE 4.6 mph - N/A   Clear
8:55 AM 25.5 °F 18.7 °F 24.4 °F 96% 30.49 in 10.0 mi ENE 5.8 mph - N/A   Clear
9:15 AM 26.6 °F 21.2 °F 25.5 °F 96% 30.49 in 10.0 mi ENE 4.6 mph - N/A   Clear
9:35 AM 27.7 °F 22.4 °F 26.2 °F 94% 30.50 in 10.0 mi East 4.6 mph - N/A   Clear
9:54 AM 30.2 °F - 27.5 °F 90% 30.50 in 10.0 mi Calm Calm - N/A   Clear
10:15 AM 32.5 °F 28.1 °F 28.8 °F 86% 30.50 in 10.0 mi ESE 4.6 mph - N/A   Clear
10:55 AM 36.0 °F 30.3 °F 28.4 °F 74% 30.49 in 10.0 mi ESE 6.9 mph - N/A   Clear
11:15 AM 36.9 °F 31.4 °F 28.4 °F 71% 30.48 in 10.0 mi East 6.9 mph - N/A   Clear
11:35 AM 38.7 °F 33.6 °F 28.2 °F 66% 30.46 in 10.0 mi ESE 6.9 mph - N/A   Clear
11:55 AM 39.7 °F 33.7 °F 26.4 °F 59% 30.45 in 10.0 mi SE 9.2 mph - N/A   Clear
12:15 PM 40.8 °F 36.2 °F 25.9 °F 55% 30.44 in 10.0 mi SE 6.9 mph - N/A   Clear
12:35 PM 41.2 °F 35.5 °F 24.8 °F 52% 30.43 in 10.0 mi SE 9.2 mph - N/A   Clear
12:55 PM 41.5 °F 37.8 °F 24.1 °F 50% 30.40 in 10.0 mi East 5.8 mph - N/A   Clear
1:15 PM 41.2 °F 35.5 °F 23.9 °F 50% 30.39 in 10.0 mi East 9.2 mph - N/A   Clear
1:35 PM 41.9 °F 36.9 °F 23.5 °F 48% 30.37 in 10.0 mi ESE 8.1 mph - N/A   Clear
1:55 PM 42.8 °F 37.5 °F 23.9 °F 47% 30.36 in 10.0 mi ESE 9.2 mph - N/A   Clear
2:35 PM 43.3 °F 37.2 °F 23.4 °F 45% 30.34 in 10.0 mi East 11.5 mph - N/A   Clear
2:55 PM 43.0 °F 38.2 °F 22.3 °F 44% 30.33 in 10.0 mi ESE 8.1 mph - N/A   Clear
3:15 PM 42.8 °F 38.6 °F 22.6 °F 45% 30.33 in 10.0 mi East 6.9 mph - N/A   Clear
3:35 PM 42.8 °F 36.6 °F 22.8 °F 45% 30.32 in 10.0 mi East 11.5 mph - N/A   Clear
3:55 PM 42.1 °F 37.1 °F 23.7 °F 48% 30.32 in 10.0 mi East 8.1 mph - N/A   Clear
4:15 PM 41.7 °F 35.2 °F 23.9 °F 49% 30.30 in 10.0 mi East 11.5 mph - N/A   Clear
4:35 PM 41.0 °F 35.2 °F 24.6 °F 52% 30.29 in 10.0 mi East 9.2 mph 16.1 mph N/A   Clear
4:55 PM 40.5 °F 35.1 °F 24.6 °F 53% 30.29 in 10.0 mi East 8.1 mph - N/A   Clear
5:15 PM 39.9 °F 33.9 °F 24.8 °F 55% 30.28 in 10.0 mi East 9.2 mph 17.3 mph N/A   Clear
5:35 PM 39.2 °F 32.5 °F 25.5 °F 58% 30.27 in 10.0 mi East 10.4 mph - N/A   Clear
5:55 PM 39.2 °F 33.0 °F 25.9 °F 59% 30.27 in 10.0 mi East 9.2 mph - N/A   Clear
6:15 PM 38.7 °F 32.9 °F 26.4 °F 61% 30.25 in 10.0 mi East 8.1 mph - N/A   Clear
6:35 PM 38.3 °F 33.2 °F 26.4 °F 62% 30.25 in 10.0 mi East 6.9 mph - N/A   Clear
6:55 PM 38.5 °F 32.1 °F 26.2 °F 61% 30.24 in 10.0 mi East 9.2 mph - N/A   Clear
7:15 PM 38.5 °F 31.6 °F 26.1 °F 61% 30.24 in 10.0 mi East 10.4 mph - N/A   Clear
7:32 PM 38.3 °F 30.9 °F 26.1 °F 61% 30.24 in 10.0 mi East 11.5 mph - N/A   Scattered Clouds
7:55 PM 38.3 °F 31.4 °F 25.7 °F 61% 30.22 in 10.0 mi East 10.4 mph - N/A   Scattered Clouds
8:15 PM 38.1 °F 31.7 °F 25.7 °F 61% 30.20 in 10.0 mi East 9.2 mph - N/A   Scattered Clouds
8:35 PM 38.3 °F 31.9 °F 25.0 °F 59% 30.19 in 10.0 mi East 9.2 mph - N/A   Mostly Cloudy
8:55 PM 37.4 °F 29.8 °F 26.4 °F 65% 30.18 in 10.0 mi East 11.5 mph - N/A   Light Drizzle
9:15 PM 37.6 °F 31.0 °F 25.7 °F 62% 30.18 in 10.0 mi ESE 9.2 mph 16.1 mph N/A   Overcast
9:55 PM 35.1 °F 27.4 °F 30.7 °F 84% 30.13 in 5.0 mi East 10.4 mph - N/A Rain Light Rain
10:15 PM 34.7 °F 26.9 °F 32.0 °F 90% 30.11 in 7.0 mi East 10.4 mph 19.6 mph N/A Rain Light Rain
10:35 PM 34.7 °F 25.9 °F 32.4 °F 91% 30.09 in 7.0 mi East 12.7 mph 20.7 mph N/A Rain Light Rain
10:55 PM 34.5 °F 25.7 °F 32.5 °F 92% 30.07 in 7.0 mi East 12.7 mph 20.7 mph N/A Rain Light Rain
11:15 PM 34.9 °F 25.7 °F 32.9 °F 92% 30.05 in 7.0 mi East 13.8 mph 25.3 mph N/A Rain Light Rain
11:35 PM 35.2 °F 25.8 °F 32.9 °F 91% 30.05 in 7.0 mi East 15.0 mph 19.6 mph N/A Rain Light Rain
11:55 PM 35.2 °F 26.6 °F 33.1 °F 92% 30.03 in 5.0 mi East 12.7 mph 17.3 mph N/A Rain Light Rain